Miscellaneous Local Product
Issued by NWS North Platte, NE

Home | Current Version | Previous Version | Graphics & Text | Print | Product List | Glossary On
Versions: 1 2 3 4 5 6 7 8 9 10 11 12 13 14 15 16 17 18 19 20 21 22 23 24 25 26 27 28 29 30 31 32 33 34 35 36 37 38 39 40 41 42 43 44 45 46 47 48 49 50
000
AXUS43 KLBF 210510
MISLBF


WESTERN AND NORTH CENTRAL NEBRASKA HOURLY WEATHER ROUNDUP
NATIONAL WEATHER SERVICE NORTH PLATTE NE
1200 AM CDT TUE APR 21 2015

***STATIONS NOT REPORTING VARIABLES SUCH AS SKY/WEATHER OR
PRESSURE ARE PROVIDED BY THE NEBRASKA DEPARTMENT OF
ROADS...RAWS...AND APRS NETWORKS...AND ARE NOT UNDER
NATIONAL WEATHER SERVICE QUALITY CONTROL***

...OBSERVATIONS IN AND NEAR THE EASTERN PANHANDLE OF NEBRASKA...

CITY           SKY/WX    TMP DP  RH WIND       PRES   REMARKS
PINE RIDGE     CLEAR     28  22  78 E3        29.91R
CHADRON        CLEAR     30  25  81 CALM      29.92R
ALLIANCE       CLEAR     35  24  64 N3        29.90R
SIDNEY         CLEAR     31  26  82 W9        29.92S WCI  23
WHITECLAY        N/A     28  22  79 CALM        N/A
CRESCENT LAKE    N/A     38  27  63 N5          N/A  WCI  34
BIG SPRINGS      N/A     37  30  77 W3          N/A
$$

...OBSERVATIONS IN NORTH CENTRAL NEBRASKA...

CITY           SKY/WX    TMP DP  RH WIND       PRES   REMARKS
VALENTINE      CLOUDY    41  26  55 W7        29.86S
THEDFORD       MOCLDY    37  28  69 W6        29.89R WCI  32
AINSWORTH      CLOUDY    44  26  48 W6        29.85S
O`NEILL        CLOUDY    43  24  45 W7        29.82R
ORD            CLOUDY    44  27  51 W8        29.84S
BROKEN BOW     CLOUDY    36  30  79 CALM      29.86S
BROWNLEE         N/A     44  21  39 W8          N/A
VALENTINE NWR    N/A     41  24  50 W5          N/A
SPRINGVIEW       N/A     42  25  50 CALM        N/A
HALSEY           N/A     38  22  53 CALM        N/A
BREWSTER         N/A     44  28  52 W6          N/A
ROSE             N/A     44  27  51 CALM        N/A
NEWPORT          N/A     43  24  47 W9          N/A
SARGENT          N/A     42  30  62 CALM        N/A
COMSTOCK         N/A     42  27  54 W7          N/A
EWING            N/A     40  27  59 W3          N/A
$$

...OBSERVATIONS IN SOUTHWEST NEBRASKA AND FAR NORTHEAST COLORADO...

CITY           SKY/WX    TMP DP  RH WIND       PRES   REMARKS
WRAY           FAIR      39  30  70 W6        29.91F WCI  35
HOLYOKE        FAIR      37  32  81 W6        29.91S WCI  33
IMPERIAL       CLEAR     37  28  70 W6        29.90S WCI  32
OGALLALA       CLEAR     33  28  85 W6        29.89S WCI  27
NORTH PLATTE   CLEAR     33  26  75 CALM      29.89R
MCCOOK         CLEAR     38  31  76 SW8       29.88F WCI  32
LEXINGTON      CLEAR     35  31  84 CALM      29.88S
PAXTON           N/A     40  31  70 CALM        N/A
SUTHERLAND       N/A     33  27  77 CALM        N/A
BRADY            N/A     35  27  74 CALM        N/A
GOTHENBURG       N/A     42  25  51 CALM        N/A
CALLAWAY         N/A     36  27  69 CALM        N/A
$$

...NORTH PLATTE AREA...

CITY           SKY/WX    TMP DP  RH WIND       PRES   REMARKS
AIRPORT        CLEAR     33  26  75 CALM      29.89R
DOWNTOWN         N/A     38  29  70 CALM        N/A
$$

...SOME WEATHER OBSERVATIONS FROM AROUND THE REGION...

CITY           SKY/WX    TMP DP  RH WIND       PRES   REMARKS
DENVER         PTCLDY    38  34  85 S12       29.96S WCI  30
LARAMIE        PTCLDY    24  21  88 S7        29.97S WCI  16
CHEYENNE       MOCLDY    34  25  69 W9        29.95F WCI  27
SCOTTSBLUFF    CLEAR     40  27  59 W5        29.91R
PIERRE         CLEAR     37  20  50 NW9       29.81R WCI  30
WINNER         FAIR      41  17  38 W14       29.83R
SIOUX FALLS    CLEAR     33  20  58 NW5       29.74R WCI  29
OMAHA          CLEAR     47  19  33 W12       29.79S
GRAND ISLAND   CLOUDY    44  30  57 W8        29.86S
KANSAS CITY    MOCLDY    45  29  53 SW7       29.85S
WICHITA        MOCLDY    49  38  65 SW5       29.91F
HAYS           MOCLDY    39  25  56 W5        29.92S
LIBERAL        PTCLDY    48  28  46 S5        29.96S
GOODLAND       PTCLDY    38  33  82 CALM      29.94F
$$



USA.gov is the U.S. government's official web portal to all federal, state and local government web resources and services.